Date String (YYYY-MM-DD hh:mm:ss) UTC,Instrument flags,Ambient pressure (hPa),Sample flow (lpm),Bypass flow (lpm),Sample temperature (°C),Ambient temperature (°C),ASC tube jacket temperature (°C),LED temperature (°C),Box temperature (°C),Sample RH (%),Span deviation,Mass concentration (μg/m³),Mass concentration (μg/m³),Mass concentration (μg/m³)
DateTimeUTC,F1_M11,P_M11,Q1_M11,Q2_M11,T1_M11,T2_M11,T3_M11,T4_M11,T5_M11,U1_M11,ZSPAN_M11,X0_M11,X2_M11,X1_M11
2021-09-02 18:00:00,,0826.2,4.99,0.00,29.7,28.3,00.0,38.6,31.4,32.0,0000.9,0017.28,0012.35,0011.68
2021-09-02 18:01:00,,0826.2,5.01,0.00,29.6,26.7,00.0,38.6,31.0,32.1,0000.9,0016.97,0012.45,0011.80
2021-09-02 18:02:00,,0826.2,5.00,0.00,29.5,26.0,00.0,38.6,30.8,32.5,0000.9,0017.39,0012.58,0011.88
2021-09-02 18:03:00,,0826.2,5.01,0.00,29.4,26.3,00.0,38.6,30.8,32.5,0001.0,0017.85,0012.62,0011.92
2021-09-02 18:04:00,,0826.2,5.00,0.00,29.4,26.7,00.0,38.5,30.9,32.0,0001.2,0018.47,0012.63,0011.91
2021-09-02 18:05:00,,0826.2,5.00,0.00,29.4,27.2,00.0,38.5,31.0,32.2,0000.9,0018.35,0012.58,0011.87
2021-09-02 18:06:00,,0826.2,5.00,0.00,29.4,27.5,00.0,38.5,31.1,31.7,0000.7,0018.02,0012.46,0011.77
2021-09-02 18:07:00,,0826.2,4.99,0.00,29.4,27.8,00.0,38.5,31.2,31.9,0000.9,0017.97,0012.33,0011.67
2021-09-02 18:08:00,,0826.1,5.01,0.00,29.4,28.1,00.0,38.5,31.2,31.7,0001.1,0017.52,0012.22,0011.61
2021-09-02 18:09:00,,0826.1,5.01,0.00,29.5,28.3,00.0,38.5,31.3,31.7,0001.2,0017.62,0012.16,0011.49
2021-09-02 18:10:00,,0826.2,5.00,0.00,29.5,28.5,00.0,38.5,31.4,31.8,0001.6,0017.56,0012.12,0011.43
2021-09-02 18:11:00,,0826.2,5.00,0.00,29.6,28.6,00.0,38.5,31.4,31.7,0001.8,0017.50,0012.09,0011.39
2021-09-02 18:12:00,,0826.2,5.00,0.00,29.6,28.7,00.0,38.6,31.5,31.8,0001.9,0017.21,0012.08,0011.35
2021-09-02 18:13:00,,0826.1,5.00,0.00,29.7,28.8,00.0,38.6,31.5,31.5,0001.9,0016.98,0012.01,0011.30
2021-09-02 18:14:00,,0826.2,5.00,0.00,29.7,28.9,00.0,38.6,31.6,30.4,0001.9,0016.32,0011.84,0011.15
2021-09-02 18:15:00,,0826.2,5.01,0.00,29.7,28.3,00.0,38.6,31.4,30.6,0001.9,0015.49,0011.64,0010.97
2021-09-02 18:16:00,,0826.2,5.01,0.00,29.6,26.7,00.0,38.6,31.0,30.5,0002.0,0015.58,0011.46,0010.78
2021-09-02 18:17:00,,0826.2,5.00,0.00,29.5,26.1,00.0,38.6,30.8,29.9,0002.0,0015.67,0011.26,0010.58
2021-09-02 18:18:00,,0826.2,5.01,0.00,29.4,26.4,00.0,38.6,30.9,30.4,0001.9,0015.25,0011.09,0010.42
2021-09-02 18:19:00,,0826.2,5.00,0.00,29.4,26.9,00.0,38.5,31.0,31.2,0001.6,0015.18,0011.02,0010.33
2021-09-02 18:20:00,,0826.1,5.00,0.00,29.4,27.3,00.0,38.5,31.1,30.8,0001.4,0015.28,0010.84,0010.20
2021-09-02 18:21:00,,0826.1,5.00,0.00,29.4,27.7,00.0,38.5,31.2,31.1,0001.2,0015.29,0010.68,0010.06
2021-09-02 18:22:00,,0826.2,5.01,0.00,29.4,28.0,00.0,38.5,31.2,31.5,0001.3,0015.64,0010.48,0009.88
2021-09-02 18:23:00,,0826.1,5.00,0.00,29.5,28.2,00.0,38.5,31.3,31.5,0001.1,0015.36,0010.27,0009.70
2021-09-02 18:24:00,,0826.1,5.00,0.00,29.5,28.4,00.0,38.5,31.4,31.7,0001.1,0015.19,0010.16,0009.60
2021-09-02 18:25:00,,0826.2,5.00,0.00,29.6,28.6,00.0,38.5,31.4,31.2,0001.0,0015.47,0010.19,0009.62
2021-09-02 18:26:00,,0826.1,4.98,0.00,29.6,28.7,00.0,38.6,31.5,30.5,0000.8,0015.54,0010.25,0009.69
2021-09-02 18:27:00,,0826.2,5.01,0.00,29.7,28.9,00.0,38.6,31.6,31.0,0000.7,0015.30,0010.34,0009.80
2021-09-02 18:28:00,,0826.2,5.00,0.00,29.7,29.0,00.0,38.6,31.6,31.2,0000.8,0015.27,0010.58,0010.04
2021-09-02 18:29:00,,0826.2,5.01,0.00,29.7,28.1,00.0,38.6,31.4,31.3,0000.9,0015.44,0010.78,0010.25
2021-09-02 18:30:00,,0826.2,5.00,0.00,29.6,26.5,00.0,38.6,30.9,32.1,0001.3,0015.49,0010.91,0010.39
2021-09-02 18:31:00,,0826.2,5.00,0.00,29.4,26.1,00.0,38.6,30.8,32.6,0001.4,0015.28,0011.15,0010.62
2021-09-02 18:32:00,,0826.2,5.01,0.00,29.4,26.4,00.0,38.6,30.9,32.9,0001.3,0016.19,0011.37,0010.82
2021-09-02 18:33:00,,0826.2,4.99,0.00,29.3,26.8,00.0,38.5,31.0,32.1,0001.2,0016.23,0011.50,0010.98
2021-09-02 18:34:00,,0826.2,4.98,0.00,29.3,27.3,00.0,38.5,31.0,32.2,0001.2,0016.68,0011.62,0011.11
2021-09-02 18:35:00,,0826.2,5.00,0.00,29.4,27.6,00.0,38.5,31.1,32.4,0001.3,0016.96,0011.71,0011.21
2021-09-02 18:36:00,,0826.1,5.01,0.00,29.4,27.9,00.0,38.5,31.2,32.1,0001.1,0016.89,0011.84,0011.34
2021-09-02 18:37:00,,0826.1,5.01,0.00,29.4,28.2,00.0,38.5,31.3,32.1,0001.0,0016.95,0011.96,0011.47
2021-09-02 18:38:00,,0826.1,5.00,0.00,29.5,28.4,00.0,38.5,31.3,32.1,0001.1,0017.13,0012.07,0011.58
2021-09-02 18:39:00,,0826.1,4.99,0.00,29.5,28.5,00.0,38.5,31.4,32.0,0001.2,0017.34,0012.09,0011.61
2021-09-02 18:40:00,,0826.2,5.01,0.00,29.6,28.7,00.0,38.6,31.5,31.8,0001.2,0017.50,0012.12,0011.60
2021-09-02 18:41:00,,0826.2,5.00,0.00,29.6,28.8,00.0,38.6,31.5,31.4,0001.0,0017.59,0012.12,0011.57
2021-09-02 18:42:00,,0826.2,5.01,0.00,29.7,28.4,00.0,38.6,31.4,31.3,0000.9,0017.54,0012.03,0011.49
2021-09-02 18:43:00,,0826.2,4.99,0.00,29.6,26.8,00.0,38.6,31.0,31.7,0000.8,0016.72,0012.00,0011.45
2021-09-02 18:44:00,,0826.2,5.00,0.00,29.4,25.9,00.0,38.6,30.8,32.2,0000.7,0016.45,0012.04,0011.45
2021-09-02 18:45:00,,0826.2,5.00,0.00,29.3,26.1,00.0,38.6,30.8,32.2,0000.7,0016.16,0012.01,0011.42
2021-09-02 18:46:00,,0826.2,5.01,0.00,29.3,26.6,00.0,38.5,30.8,32.4,0000.7,0016.05,0012.02,0011.40
2021-09-02 18:47:00,,0826.2,5.00,0.00,29.3,27.0,00.0,38.5,31.0,32.3,0001.0,0015.91,0011.98,0011.38
2021-09-02 18:48:00,,0826.2,5.01,0.00,29.3,27.4,00.0,38.4,31.0,32.4,0001.2,0016.05,0011.96,0011.36
2021-09-02 18:49:00,,0826.2,4.99,0.00,29.3,27.7,00.0,38.4,31.1,32.3,0001.4,0015.94,0011.90,0011.31
2021-09-02 18:50:00,,0826.1,5.01,0.00,29.4,28.0,00.0,38.4,31.2,32.3,0001.4,0016.49,0011.87,0011.29
2021-09-02 18:51:00,,0826.0,4.99,0.00,29.4,28.2,00.0,38.5,31.3,32.3,0001.3,0017.55,0011.88,0011.31
2021-09-02 18:52:00,,0826.0,5.01,0.00,29.5,28.4,00.0,38.5,31.3,32.1,0001.6,0017.67,0011.88,0011.33
2021-09-02 18:53:00,,0826.0,4.99,0.00,29.5,28.5,00.0,38.5,31.4,31.9,0001.9,0018.40,0011.91,0011.34
2021-09-02 18:54:00,,0826.0,5.00,0.00,29.6,28.7,00.0,38.5,31.4,31.9,0002.1,0018.85,0011.88,0011.33
2021-09-02 18:55:00,,0826.0,5.01,0.00,29.6,28.8,00.0,38.5,31.5,32.1,0002.4,0018.70,0011.89,0011.35
2021-09-02 18:56:00,,0826.1,4.99,0.00,29.7,28.8,00.0,38.6,31.5,32.5,0002.3,0018.62,0011.91,0011.38
2021-09-02 18:57:00,,0826.0,5.00,0.00,29.6,27.5,00.0,38.6,31.2,32.9,0002.3,0018.52,0011.92,0011.39
2021-09-02 18:58:00,,0826.0,4.98,0.00,29.5,26.1,00.0,38.5,30.8,33.0,0002.2,0018.54,0011.93,0011.39
2021-09-02 18:59:00,,0826.0,5.00,0.00,29.3,25.9,00.0,38.5,30.8,32.9,0002.1,0018.48,0011.96,0011.38
